| time (UTC) | temp C | wind direction | speed KPH | gust KPH | rain 1hr cm | rain 24hr cm | rain mn cm | humidity % | barometer mb |
| 20260510164538 | 25 | 33 | 4.8 | 12.9 | 0.00 | 0.00 | 0.00 | 72 | 1017.0 |
| 20260510163037 | 25 | 131 | 4.8 | 14.5 | 0.00 | 0.00 | 0.00 | 72 | 1017.0 |
| 20260510161537 | 25 | 128 | 6.4 | 12.9 | 0.00 | 0.00 | 0.00 | 74 | 1017.0 |
| 20260510160056 | 23 | 323 | 1.6 | 12.9 | 0.00 | 0.00 | 0.00 | 80 | 1017.3 |
| 20260510154552 | 23 | 91 | 4.8 | 11.3 | 0.00 | 0.00 | 0.00 | 80 | 1017.4 |
| 20260510153037 | 22 | 121 | 1.6 | 8.0 | 0.00 | 0.00 | 0.00 | 83 | 1017.4 |
| 20260510151538 | 21 | 61 | 1.6 | 4.8 | 0.00 | 0.00 | 0.00 | 86 | 1017.6 |
| 20260510150039 | 21 | 290 | 3.2 | 6.4 | 0.00 | 0.00 | 0.00 | 87 | 1017.7 |
| 20260510144547 | 21 | 296 | 3.2 | 8.0 | 0.00 | 0.00 | 0.00 | 89 | 1017.5 |
| 20260510143044 | 20 | 271 | 1.6 | 8.0 | 0.00 | 0.00 | 0.00 | 91 | 1017.5 |
| 20260510141542 | 20 | 282 | 4.8 | 11.3 | 0.00 | 0.00 | 0.00 | 91 | 1017.5 |
| 20260510140042 | 20 | 21 | 4.8 | 9.7 | 0.00 | 0.00 | 0.00 | 92 | 1017.5 |
| 20260510134542 | 19 | 275 | 3.2 | 12.9 | 0.00 | 0.28 | 0.00 | 92 | 1017.2 |
| 20260510133042 | 18 | 287 | 4.8 | 11.3 | 0.00 | 0.28 | 0.00 | 95 | 1017.1 |
| 20260510131546 | 18 | 5 | 1.6 | 8.0 | 0.00 | 0.28 | 0.00 | 95 | 1017.0 |
| 20260510130042 | 18 | 331 | 1.6 | 6.4 | 0.00 | 0.28 | 0.00 | 96 | 1016.8 |
| 20260510124540 | 18 | 350 | 1.6 | 6.4 | 0.00 | 0.64 | 0.00 | 96 | 1016.5 |
| 20260510123038 | 18 | 275 | 3.2 | 9.7 | 0.00 | 0.64 | 0.00 | 96 | 1016.3 |
| 20260510121545 | 18 | 287 | 1.6 | 4.8 | 0.00 | 0.64 | 0.00 | 97 | 1016.3 |
| 20260510120044 | 18 | 320 | 1.6 | 8.0 | 0.00 | 0.64 | 0.00 | 97 | 1016.1 |
| 20260510114538 | 18 | 352 | 3.2 | 6.4 | 0.00 | 2.46 | 0.00 | 97 | 1015.9 |
| 20260510113040 | 18 | 0 | 0.0 | 3.2 | 0.00 | 2.46 | 0.00 | 97 | 1015.6 |
| 20260510111538 | 18 | 0 | 0.0 | 3.2 | 0.00 | 2.46 | 0.00 | 97 | 1015.3 |
| 20260510110040 | 18 | 281 | 1.6 | 4.8 | 0.00 | 2.46 | 0.00 | 97 | 1015.0 |
| 20260510104539 | 18 | 276 | 0.0 | 3.2 | 0.00 | 2.77 | 0.00 | 97 | 1015.0 |
| 20260510103043 | 18 | 0 | 0.0 | 3.2 | 0.00 | 2.77 | 0.00 | 97 | 1014.7 |
| 20260510101538 | 18 | 201 | 0.0 | 3.2 | 0.00 | 2.77 | 0.00 | 97 | 1014.7 |
| 20260510100040 | 18 | 0 | 0.0 | 1.6 | 0.00 | 2.77 | 0.00 | 97 | 1014.6 |
| 20260510094548 | 18 | 155 | 0.0 | 1.6 | 0.00 | 3.23 | 0.00 | 97 | 1014.5 |
| 20260510093053 | 18 | 0 | 0.0 | 1.6 | 0.00 | 3.23 | 0.00 | 97 | 1014.3 |
| 20260510091543 | 18 | 0 | 0.0 | 1.6 | 0.00 | 3.23 | 0.00 | 97 | 1014.3 |
| 20260510090054 | 18 | 0 | 0.0 | 1.6 | 0.00 | 3.23 | 0.00 | 96 | 1014.2 |
| 20260510084541 | 18 | 154 | 0.0 | 1.6 | 0.00 | 3.58 | 0.00 | 96 | 1014.0 |
| 20260510083037 | 18 | 0 | 0.0 | 3.2 | 0.00 | 3.58 | 0.00 | 96 | 1013.8 |
| 20260510081540 | 18 | 0 | 0.0 | 0.0 | 0.00 | 3.58 | 0.00 | 96 | 1013.5 |
| 20260510080038 | 18 | 0 | 0.0 | 1.6 | 0.00 | 3.58 | 0.00 | 96 | 1013.4 |
| 20260510074537 | 18 | 0 | 0.0 | 3.2 | 0.00 | 3.58 | 0.00 | 96 | 1013.3 |
| 20260510073044 | 18 | 0 | 0.0 | 1.6 | 0.00 | 3.58 | 0.00 | 96 | 1013.0 |
| 20260510071550 | 18 | 0 | 0.0 | 1.6 | 0.00 | 3.58 | 0.00 | 96 | 1012.8 |
| 20260510070042 | 18 | 0 | 0.0 | 1.6 | 0.00 | 3.58 | 0.00 | 96 | 1012.8 |
| 20260510064538 | 18 | 0 | 0.0 | 3.2 | 0.00 | 3.58 | 0.00 | 96 | 1012.8 |
| 20260510063037 | 18 | 158 | 1.6 | 3.2 | 0.00 | 3.58 | 0.00 | 96 | 1013.0 |
| 20260510061542 | 18 | 158 | 0.0 | 3.2 | 0.00 | 3.58 | 0.00 | 96 | 1013.2 |
| 20260510060043 | 18 | 0 | 0.0 | 1.6 | 0.00 | 3.58 | 0.00 | 96 | 1013.3 |
| 20260510054541 | 18 | 0 | 0.0 | 1.6 | 0.00 | 3.58 | 0.00 | 96 | 1013.4 |
| 20260510053053 | 18 | 0 | 0.0 | 1.6 | 0.00 | 3.58 | 0.00 | 95 | 1013.4 |
| 20260510051544 | 18 | 0 | 0.0 | 1.6 | 0.00 | 3.58 | 0.00 | 95 | 1013.5 |
| 20260510050037 | 18 | 0 | 0.0 | 0.0 | 0.00 | 3.58 | 0.00 | 95 | 1013.7 |
| 20260510044537 | 18 | 0 | 0.0 | 0.0 | 0.00 | 3.58 | 3.58 | 95 | 1013.8 |
| 20260510043055 | 19 | 159 | 0.0 | 3.2 | 0.00 | 3.58 | 3.58 | 95 | 1013.8 |
| 20260510041542 | 19 | 0 | 0.0 | 0.0 | 0.00 | 3.58 | 3.58 | 94 | 1014.0 |
| 20260510040042 | 19 | 0 | 0.0 | 1.6 | 0.00 | 3.58 | 3.58 | 94 | 1013.9 |
| 20260510034540 | 19 | 0 | 0.0 | 1.6 | 0.00 | 3.58 | 3.58 | 93 | 1013.8 |
| 20260510033043 | 20 | 0 | 0.0 | 1.6 | 0.00 | 3.58 | 3.58 | 93 | 1013.7 |
| 20260510031548 | 20 | 0 | 0.0 | 1.6 | 0.00 | 3.58 | 3.58 | 93 | 1013.7 |
| 20260510030046 | 20 | 0 | 0.0 | 0.0 | 0.00 | 3.58 | 3.58 | 93 | 1014.1 |
| 20260510024542 | 20 | 0 | 0.0 | 0.0 | 0.00 | 3.58 | 3.58 | 93 | 1013.8 |
| 20260510023037 | 20 | 0 | 0.0 | 0.0 | 0.00 | 3.58 | 3.58 | 93 | 1013.6 |
| 20260510021545 | 20 | 0 | 0.0 | 1.6 | 0.00 | 3.58 | 3.58 | 93 | 1013.5 |
| 20260510020043 | 20 | 159 | 0.0 | 3.2 | 0.00 | 3.58 | 3.58 | 93 | 1013.6 |
| 20260510014545 | 20 | 0 | 0.0 | 3.2 | 0.00 | 3.58 | 3.58 | 93 | 1013.5 |
| 20260510013049 | 20 | 159 | 1.6 | 6.4 | 0.00 | 3.58 | 3.58 | 92 | 1013.3 |
| 20260510011544 | 20 | 143 | 1.6 | 3.2 | 0.00 | 3.58 | 3.58 | 92 | 1013.1 |
| 20260510010037 | 20 | 142 | 0.0 | 3.2 | 0.00 | 3.58 | 3.58 | 92 | 1012.8 |
| 20260510004541 | 20 | 0 | 0.0 | 3.2 | 0.00 | 3.58 | 3.58 | 91 | 1012.4 |
| 20260510003038 | 20 | 160 | 1.6 | 3.2 | 0.00 | 3.58 | 3.58 | 91 | 1012.4 |
| 20260510001544 | 20 | 158 | 0.0 | 4.8 | 0.00 | 3.58 | 3.58 | 91 | 1012.1 |
| 20260510000048 | 21 | 157 | 1.6 | 4.8 | 0.00 | 3.58 | 3.58 | 90 | 1011.7 |
| 20260509234540 | 21 | 136 | 1.6 | 3.2 | 0.00 | 3.58 | 3.58 | 90 | 1011.8 |
| 20260509233038 | 21 | 136 | 0.0 | 3.2 | 0.00 | 3.58 | 3.58 | 89 | 1011.7 |
| 20260509231545 | 21 | 0 | 0.0 | 3.2 | 0.00 | 3.58 | 3.58 | 89 | 1011.4 |
| 20260509230037 | 21 | 122 | 0.0 | 4.8 | 0.00 | 3.58 | 3.58 | 88 | 1011.6 |
| 20260509224543 | 21 | 161 | 0.0 | 3.2 | 0.00 | 3.58 | 3.58 | 88 | 1011.4 |
| 20260509223044 | 21 | 161 | 0.0 | 3.2 | 0.00 | 3.58 | 3.58 | 88 | 1011.4 |
| 20260509221542 | 21 | 0 | 0.0 | 6.4 | 0.00 | 3.58 | 3.58 | 87 | 1011.3 |
| 20260509220039 | 21 | 161 | 0.0 | 6.4 | 0.00 | 3.58 | 3.58 | 87 | 1011.2 |
| 20260509214549 | 22 | 157 | 1.6 | 3.2 | 0.00 | 3.58 | 3.58 | 85 | 1011.2 |
| 20260509213045 | 22 | 153 | 1.6 | 4.8 | 0.00 | 3.58 | 3.58 | 83 | 1011.6 |
| 20260509211535 | 22 | 154 | 1.6 | 6.4 | 0.00 | 3.58 | 3.58 | 81 | 1011.1 |
| 20260509210044 | 22 | 140 | 1.6 | 4.8 | 0.00 | 3.58 | 3.58 | 79 | 1010.9 |
| 20260509204546 | 22 | 153 | 1.6 | 6.4 | 0.00 | 3.71 | 3.58 | 79 | 1010.8 |
| 20260509203053 | 22 | 115 | 0.0 | 4.8 | 0.00 | 3.71 | 3.58 | 80 | 1010.9 |
| 20260509201537 | 22 | 98 | 0.0 | 3.2 | 0.00 | 3.71 | 3.58 | 80 | 1010.8 |
| 20260509200038 | 22 | 97 | 1.6 | 3.2 | 0.00 | 3.71 | 3.58 | 80 | 1011.2 |
| 20260509194547 | 22 | 0 | 3.2 | 6.4 | 0.00 | 3.78 | 3.58 | 79 | 1011.2 |
| 20260509193043 | 22 | 0 | 0.0 | 3.2 | 0.00 | 3.78 | 3.58 | 81 | 1011.2 |
| 20260509191555 | 22 | 134 | 1.6 | 3.2 | 0.00 | 3.78 | 3.58 | 82 | 1011.3 |
| 20260509190036 | 22 | 0 | 0.0 | 8.0 | 0.00 | 3.78 | 3.58 | 81 | 1011.3 |
| 20260509184554 | 21 | 0 | 0.0 | 6.4 | 0.00 | 3.78 | 3.58 | 85 | 1011.3 |
| 20260509183049 | 21 | 0 | 1.6 | 4.8 | 0.00 | 3.78 | 3.58 | 87 | 1011.6 |
| 20260509181538 | 21 | 83 | 3.2 | 9.7 | 0.00 | 3.78 | 3.58 | 86 | 1011.5 |
| 20260509180040 | 21 | 42 | 0.0 | 4.8 | 0.00 | 3.78 | 3.58 | 88 | 1011.7 |
| 20260509174548 | 20 | 0 | 0.0 | 4.8 | 0.00 | 3.78 | 3.58 | 89 | 1012.1 |
| 20260509173050 | 20 | 323 | 0.0 | 4.8 | 0.00 | 3.78 | 3.58 | 89 | 1012.4 |
| 20260509171538 | 20 | 288 | 3.2 | 6.4 | 0.00 | 3.78 | 3.58 | 90 | 1012.6 |
| 20260509170043 | 20 | 275 | 0.0 | 3.2 | 0.00 | 3.78 | 3.58 | 92 | 1012.6 |